ONEWEB-0412 (50489 NORAD) Tracking and Keplerian Element Data

This shows tracking and keplerian element data for the satellite.

Feedback or suggestion? Click here.




ElementValue
Catalog50489
NameONEWEB-0412
Epoch Orbit130
Epoch Day140.58334491
Epoch Year2022
RAAN305.2947
Inclination87.2222
Eccentricity0.0003777
Argument of Perigee108.7206
Mean Anonmoly129.253
Mean Motion14.92517128
Decay Rate-0.00060434
L11 50489U 21132W 22140.58334491 -.00060434 00000+0 -59489-2 0 9996
L22 50489 87.2222 305.2947 0003777 108.7206 129.2530 14.92517128 1305

Live tracking and technical data element details for ONEWEB-0412 (NORAD 50489). ONEWEB-0412 can be tracked NOW for your location showing map with azimuth and elevation plus other details from your city location.

Track the satellite on the map from your city or location and see movement details for azimuth, elevation, latitude, longitude, range, height, and movement on the map or in text.







IsCatalogInMostPopularTable: catalog: 50489, numindb: 23
Update: records affected: 1



GetName: 50489 ONEWEB-0412

Hit Count: updated at: Mon, 23 May 2022 21:49:24 GMT